E7853 Weather Reports


Display with metric or nautical units.
time (UTC)temp
F
wind
direction
speed
MPH
gust
MPH
rain 1hr
in
rain 24hr
in
rain mn
in
humidity
%
barometer
mb
20260906212125 84 113 4.0 5.0 0.00 0.00 0.00 45 1016.4
20260906211123 84 112 3.0 5.0 0.00 0.00 0.00 46 1016.6
20260906210143 84 119 4.0 5.0 0.00 0.00 0.00 46 1016.6
20260906205122 85 116 4.0 6.0 0.00 0.00 0.00 46 1016.7
20260906204122 83 143 4.0 8.0 0.00 0.00 0.00 48 1016.8
20260906203124 86 128 4.0 5.0 0.00 0.00 0.00 44 1016.8
20260906202122 84 105 4.0 6.0 0.00 0.00 0.00 46 1016.9
20260906201125 82 118 4.0 6.0 0.00 0.00 0.00 47 1016.9
20260906200143 84 113 4.0 5.0 0.00 0.00 0.00 45 1016.9
20260906195122 86 95 4.0 7.0 0.00 0.00 0.00 44 1017.0
20260906194120 87 131 3.0 5.0 0.00 0.00 0.00 44 1017.1
20260906193120 88 102 4.0 6.0 0.00 0.00 0.00 42 1017.2
20260906192120 86 110 4.0 6.0 0.00 0.00 0.00 43 1017.3
20260906191120 84 95 4.0 6.0 0.00 0.00 0.00 43 1017.6
20260906190120 85 113 4.0 6.0 0.00 0.00 0.00 42 1017.6
20260906185120 84 96 3.0 5.0 0.00 0.00 0.00 44 1017.7
20260906184120 84 97 3.0 5.0 0.00 0.00 0.00 43 1018.0
20260906183120 85 102 3.0 5.0 0.00 0.00 0.00 42 1018.1
20260906182120 83 112 3.0 5.0 0.00 0.00 0.00 45 1018.2
20260906181120 84 121 3.0 5.0 0.00 0.00 0.00 44 1018.4
20260906180120 83 107 3.0 5.0 0.00 0.00 0.00 45 1018.4
20260906175123 81 95 3.0 5.0 0.00 0.00 0.00 46 1018.5
20260906174120 80 114 3.0 4.0 0.00 0.00 0.00 47 1018.6
20260906173123 80 115 3.0 5.0 0.00 0.00 0.00 48 1018.6
20260906172120 80 86 3.0 4.0 0.00 0.00 0.00 48 1018.7
20260906171120 79 106 3.0 5.0 0.00 0.00 0.00 48 1018.8
20260906170121 79 72 3.0 5.0 0.00 0.00 0.00 48 1018.8
20260906165120 78 40 2.0 5.0 0.00 0.00 0.00 49 1018.8
20260906164121 76 81 3.0 4.0 0.00 0.00 0.00 50 1018.8
20260906163142 77 83 3.0 5.0 0.00 0.00 0.00 50 1018.7
20260906162123 77 91 2.0 5.0 0.00 0.00 0.00 50 1018.8
20260906161120 77 20 2.0 5.0 0.00 0.00 0.00 50 1018.8
20260906160120 77 72 2.0 4.0 0.00 0.00 0.00 51 1018.8
20260906155120 76 331 2.0 4.0 0.00 0.00 0.00 51 1018.7
20260906154120 76 344 2.0 5.0 0.00 0.00 0.00 50 1018.6
20260906153122 78 14 2.0 4.0 0.00 0.00 0.00 48 1018.6
20260906152141 76 300 2.0 5.0 0.00 0.00 0.00 49 1018.7
20260906151122 74 299 2.0 6.0 0.00 0.00 0.00 53 1018.5
20260906150120 72 313 2.0 5.0 0.00 0.00 0.00 55 1018.5
20260906145122 71 337 2.0 4.0 0.00 0.00 0.00 56 1018.6
20260906144121 70 256 2.0 4.0 0.00 0.00 0.00 58 1018.5
20260906143121 69 275 2.0 4.0 0.00 0.00 0.00 60 1018.4
20260906142121 68 270 1.0 3.0 0.00 0.00 0.00 61 1018.3
20260906141121 66 270 2.0 3.0 0.00 0.00 0.00 64 1018.2
20260906140121 63 270 1.0 2.0 0.00 0.00 0.00 68 1018.2
20260906135121 60 304 1.0 4.0 0.00 0.00 0.00 71 1018.2
20260906134122 60 337 1.0 3.0 0.00 0.00 0.00 71 1018.2
20260906133121 59 337 1.0 3.0 0.00 0.00 0.00 72 1018.1
20260906132142 59 337 2.0 3.0 0.00 0.00 0.00 72 1018.0
20260906131142 59 340 1.0 3.0 0.00 0.00 0.00 72 1017.9
20260906130121 58 360 1.0 3.0 0.00 0.00 0.00 71 1017.9
20260906125122 59 360 1.0 2.0 0.00 0.00 0.00 70 1018.0
20260906124142 59 360 1.0 3.0 0.00 0.00 0.00 70 1018.0
20260906123122 59 360 2.0 3.0 0.00 0.00 0.00 70 1018.0
20260906122121 59 360 1.0 2.0 0.00 0.00 0.00 70 1017.9
20260906121121 59 360 1.0 3.0 0.00 0.00 0.00 71 1017.9
20260906120121 58 360 1.0 2.0 0.00 0.00 0.00 71 1017.9
20260906115121 58 360 1.0 2.0 0.00 0.00 0.00 71 1017.8
20260906114122 58 360 2.0 3.0 0.00 0.00 0.00 71 1017.8
20260906113121 58 360 2.0 3.0 0.00 0.00 0.00 71 1017.7
20260906112121 58 360 2.0 3.0 0.00 0.00 0.00 73 1017.6
20260906111121 58 360 2.0 3.0 0.00 0.00 0.00 73 1017.5
20260906110142 59 360 2.0 2.0 0.00 0.00 0.00 73 1017.5
20260906105121 59 360 0.0 0.0 0.00 0.00 0.00 73 1017.6
20260906104120 59 360 0.0 0.0 0.00 0.00 0.00 73 1017.6
20260906103120 59 360 1.0 2.0 0.00 0.00 0.00 73 1017.7
20260906102120 59 360 2.0 3.0 0.00 0.00 0.00 73 1017.7
20260906101120 60 360 2.0 2.0 0.00 0.00 0.00 73 1017.8
20260906100120 60 360 0.0 2.0 0.00 0.00 0.00 73 1017.8
20260906095141 61 360 2.0 3.0 0.00 0.00 0.00 74 1017.9
20260906094120 61 360 1.0 2.0 0.00 0.00 0.00 73 1017.8
20260906093120 61 360 1.0 3.0 0.00 0.00 0.00 75 1017.8
20260906092123 62 360 2.0 3.0 0.00 0.00 0.00 75 1017.7
20260906091120 62 360 1.0 3.0 0.00 0.00 0.00 76 1017.7
20260906090120 62 360 2.0 2.0 0.00 0.00 0.00 76 1017.7
20260906085120 63 360 0.0 2.0 0.00 0.00 0.00 76 1017.7
20260906084120 63 360 1.0 2.0 0.00 0.00 0.00 76 1017.7
20260906083142 63 360 0.0 2.0 0.00 0.00 0.00 77 1017.8
20260906082120 63 360 0.0 0.0 0.00 0.00 0.00 77 1017.8
20260906081122 63 360 0.0 0.0 0.00 0.00 0.00 77 1017.8
20260906080121 63 360 0.0 0.0 0.00 0.00 0.00 77 1017.8
20260906075122 63 11 0.0 2.0 0.00 0.00 0.00 77 1017.8
20260906074141 63 23 0.0 2.0 0.00 0.00 0.00 77 1017.8
20260906073120 63 23 2.0 3.0 0.00 0.00 0.00 77 1017.9
20260906072120 63 23 1.0 3.0 0.00 0.00 0.00 77 1018.0
20260906071141 63 23 0.0 2.0 0.00 0.00 0.00 76 1018.1
20260906070122 64 23 0.0 2.0 0.00 0.00 0.00 75 1018.1
20260906065120 64 23 0.0 0.0 0.00 0.00 0.00 75 1018.0
20260906064122 64 23 0.0 0.0 0.00 0.00 0.00 75 1018.2
20260906063120 64 23 1.0 2.0 0.00 0.00 0.00 75 1018.1
20260906062142 64 23 0.0 0.0 0.00 0.00 0.00 75 1018.0
20260906061120 64 23 1.0 3.0 0.00 0.00 0.00 75 1017.9
20260906060120 63 23 0.0 0.0 0.00 0.00 0.00 76 1017.9
20260906055120 64 23 2.0 3.0 0.00 0.00 0.00 75 1017.9
20260906054121 64 23 1.0 2.0 0.00 0.00 0.00 75 1017.9
20260906053121 65 23 1.0 3.0 0.00 0.00 0.00 74 1017.8
20260906052120 65 23 2.0 3.0 0.00 0.00 0.00 74 1017.9
20260906045121 65 23 0.0 0.0 0.00 0.00 0.00 76 1018.0
20260906044143 66 23 0.0 0.0 0.00 0.00 0.00 76 1018.0
20260906043122 66 23 0.0 0.0 0.00 0.00 0.00 76 1018.0
20260906042121 66 23 0.0 0.0 0.00 0.00 0.00 76 1018.0
20260906041122 66 23 0.0 0.0 0.00 0.00 0.00 76 1018.1
20260906040122 66 23 0.0 2.0 0.00 0.00 0.00 76 1018.1
20260906035122 67 23 0.0 0.0 0.00 0.00 0.00 75 1018.1
20260906034122 67 23 0.0 0.0 0.00 0.00 0.00 75 1018.2
20260906033124 67 23 0.0 0.0 0.00 0.00 0.00 75 1018.0
20260906032143 67 23 0.0 0.0 0.00 0.00 0.00 75 1018.0
20260906031125 67 23 0.0 0.0 0.00 0.00 0.00 73 1017.9
20260906030122 68 23 0.0 0.0 0.00 0.00 0.00 72 1017.9
20260906025144 69 23 0.0 0.0 0.00 0.00 0.00 72 1017.7
20260906024143 69 23 2.0 3.0 0.00 0.00 0.00 71 1017.7
20260906023122 70 23 2.0 3.0 0.00 0.00 0.00 70 1017.6
20260906022122 70 23 3.0 4.0 0.00 0.00 0.00 68 1017.5
20260906021143 70 23 3.0 4.0 0.00 0.00 0.00 63 1017.3
20260906020122 70 28 3.0 5.0 0.00 0.00 0.00 55 1017.3
20260906015122 72 45 0.0 0.0 0.00 0.00 0.00 45 1017.0
20260906014122 73 45 0.0 0.0 0.00 0.00 0.00 45 1017.1
20260906013120 73 45 0.0 0.0 0.00 0.00 0.00 45 1017.0
20260906012120 74 45 0.0 0.0 0.00 0.00 0.00 44 1017.0
20260906011142 76 45 0.0 0.0 0.00 0.00 0.00 44 1017.2
20260906010142 77 45 0.0 0.0 0.00 0.00 0.00 43 1017.2
20260906005121 78 45 0.0 0.0 0.00 0.00 0.00 42 1017.3
20260906004121 79 45 0.0 0.0 0.00 0.00 0.00 40 1017.2
20260906003121 79 45 0.0 0.0 0.00 0.00 0.00 40 1017.2
20260906002142 80 45 0.0 0.0 0.00 0.00 0.00 39 1017.2
20260906001121 81 45 0.0 0.0 0.00 0.00 0.00 39 1017.1
20260906000143 81 45 0.0 1.0 0.00 0.00 0.00 38 1017.1
20260905235121 81 45 0.0 0.0 0.00 0.00 0.00 37 1017.0
20260905234124 82 45 1.0 2.0 0.00 0.00 0.00 37 1017.1
20260905233142 81 45 0.0 3.0 0.00 0.00 0.00 38 1017.0
20260905232123 83 45 2.0 3.0 0.00 0.00 0.00 36 1016.9
20260905231121 83 45 1.0 4.0 0.00 0.00 0.00 37 1016.9
20260905230121 81 23 0.0 2.0 0.00 0.00 0.00 38 1016.9
20260905225121 81 23 1.0 2.0 0.00 0.00 0.00 38 1017.1
20260905224121 83 23 1.0 3.0 0.00 0.00 0.00 37 1017.3
20260905223123 82 23 1.0 3.0 0.00 0.00 0.00 37 1017.3
20260905222121 81 47 2.0 4.0 0.00 0.00 0.00 37 1017.2
20260905221123 82 194 1.0 3.0 0.00 0.00 0.00 38 1017.3
20260905220121 80 298 2.0 4.0 0.00 0.00 0.00 38 1017.3
20260905215123 79 23 2.0 3.0 0.00 0.00 0.00 39 1017.3
20260905214121 79 50 1.0 3.0 0.00 0.00 0.00 40 1017.6
20260905213121 81 68 1.0 3.0 0.00 0.00 0.00 38 1017.6